EDT,Max TemperatureF,Mean TemperatureF,Min TemperatureF,Max Dew PointF,MeanDew PointF,Min DewpointF,Max Humidity, Mean Humidity, Min Humidity, Max Sea Level PressureIn, Mean Sea Level PressureIn, Min Sea Level PressureIn, Max VisibilityMiles, Mean VisibilityMiles, Min VisibilityMiles, Max Wind SpeedMPH, Mean Wind SpeedMPH, Max Gust SpeedMPH,PrecipitationIn, CloudCover, Events, WindDirDegrees
2012-10-1,68,56,44,53,47,42,93,70,42,29.97,29.93,29.88,10,8,4,9,5,,0.00,2,,259
2012-10-2,63,60,57,62,58,55,100,92,82,30.00,29.96,29.92,9,3,0,9,5,,1.78,8,Fog-Rain,61
2012-10-3,73,68,62,66,64,62,100,91,78,30.13,30.04,29.96,7,2,0,9,3,,0.12,5,Fog-Rain,296
2012-10-4,75,66,57,70,64,56,100,90,64,30.15,30.12,30.09,10,3,0,13,2,,0.02,4,Fog-Rain,286
2012-10-5,79,66,53,59,55,51,93,72,45,30.12,30.05,29.94,10,8,4,10,4,,0.01,0,,252
2012-10-6,70,58,46,58,50,40,90,72,50,30.05,29.90,29.83,10,9,4,22,6,28,0.00,2,,288
2012-10-7,53,48,44,45,41,36,89,76,61,30.15,30.09,30.03,10,10,5,8,5,,0.09,6,Rain,265
2012-10-8,50,44,39,42,38,35,89,77,63,30.30,30.24,30.16,10,10,10,8,4,,0.00,4,Rain,293
2012-10-9,57,52,46,50,46,40,89,79,62,30.22,30.15,30.07,10,10,7,7,2,,0.00,8,Rain,45
2012-10-10,64,56,46,54,49,37,100,83,43,30.06,29.98,29.84,10,5,1,16,3,21,0.12,7,Rain,271
2012-10-11,57,50,42,37,32,29,76,55,35,30.26,30.19,30.07,10,10,10,14,7,18,0.00,0,,278
2012-10-12,57,47,37,40,32,26,89,64,34,30.47,30.24,30.12,10,10,3,18,4,25,0.00,1,,342
2012-10-13,55,42,30,35,27,23,82,58,35,30.53,30.44,30.29,10,10,10,10,4,,0.00,0,,184
2012-10-14,72,58,44,54,46,36,80,68,47,30.27,30.11,29.92,10,10,10,14,5,20,0.00,3,,181
2012-10-15,68,60,53,63,57,44,94,82,70,29.89,29.73,29.67,10,8,2,10,6,,0.15,6,Rain,231
2012-10-16,60,52,43,42,39,37,80,63,47,29.93,29.86,29.78,10,10,10,17,9,25,0.00,2,,292
2012-10-17,63,48,36,45,40,34,93,75,42,30.03,29.97,29.94,10,8,4,7,2,,0.00,0,,144
2012-10-18,70,57,45,56,49,42,93,79,44,29.99,29.93,29.83,10,8,4,21,7,28,0.07,5,Rain,121
2012-10-19,73,64,57,63,58,55,100,90,61,29.84,29.73,29.61,10,5,0,20,5,28,1.64,7,Fog-Rain-Thunderstorm,130
2012-10-20,62,54,44,54,47,38,100,80,44,29.91,29.75,29.67,10,5,0,15,4,21,0.01,3,Fog,277
2012-10-21,63,52,42,43,40,38,89,68,44,30.11,30.03,29.93,10,10,10,18,8,22,0.00,1,,282
2012-10-22,66,54,41,43,40,36,83,64,40,30.19,30.13,30.09,10,10,8,12,6,,0.00,0,,286
2012-10-23,66,55,46,58,52,43,100,87,75,30.16,30.08,30.05,8,5,0,5,1,,0.06,3,Fog-Rain,82
2012-10-24,77,62,50,58,53,48,100,87,50,30.15,30.10,30.06,8,2,0,6,1,,0.00,2,Fog,72
2012-10-25,63,59,57,58,56,55,100,90,82,30.24,30.20,30.16,4,3,1,10,6,,0.00,8,,116
2012-10-26,64,62,59,57,56,55,90,83,70,30.21,30.16,30.08,8,5,2,6,3,,0.00,8,,103
2012-10-27,64,60,57,56,53,51,90,78,65,30.07,29.97,29.90,10,9,5,9,4,,0.00,6,,69
2012-10-28,57,54,51,52,48,43,89,81,62,29.88,29.76,29.65,10,8,5,17,10,25,0.27,7,Rain,30
2012-10-29,59,54,50,52,47,45,94,84,74,29.62,28.93,28.35,10,4,2,33,20,52,2.18,8,Rain,353
2012-10-30,50,46,41,48,39,37,93,87,81,29.46,29.23,28.41,10,7,2,29,15,38,0.47,8,Rain,152
2012-10-31,46,42,39,38,36,34,89,78,65,29.61,29.53,29.45,10,10,10,14,4,17,0.00,8,Rain,231